This is the latest recevied weather packets stored in our database for station/object K5FEP. If no packets are shown the sender has not sent any weather packets the latest 10 day(s).
| Time | Temp. | Humidity | Pressure | Rain* | Wind** | Luminosity | Snow |
|---|---|---|---|---|---|---|---|
| 1777643563 | 13.33° C | 57% | 1015.8 hPa | 0 mm | - | 422 W/m² | - |
| 1777643259 | 13.89° C | 55% | 1015.8 hPa | 0 mm | - | 477 W/m² | - |
| 1777642956 | 13.33° C | 56% | 1015.6 hPa | 0 mm | - | 474 W/m² | - |
| 1777642652 | 13.89° C | 56% | 1015.7 hPa | 0 mm | - | 441 W/m² | - |
| 1777642349 | 13.33° C | 57% | 1015.6 hPa | 0 mm | - | 442 W/m² | - |
| 1777642046 | 13.33° C | 60% | 1015.9 hPa | 0 mm | - | 519 W/m² | - |
| 1777641742 | 12.78° C | 60% | 1016 hPa | 0 mm | - | 552 W/m² | - |
| 1777641437 | 12.78° C | 63% | 1015.8 hPa | 0 mm | - | 474 W/m² | - |
| 1777641133 | 11.67° C | 68% | 1015.9 hPa | 0 mm | - | 471 W/m² | - |
| 1777640829 | 11.11° C | 69% | 1016 hPa | 0 mm | - | 196 W/m² | - |
| 1777640526 | 11.11° C | 68% | 1016.1 hPa | 0 mm | - | 519 W/m² | - |
| 1777640223 | 11.11° C | 69% | 1016.2 hPa | 0 mm | - | 392 W/m² | - |
| 1777639919 | 11.11° C | 72% | 1016.2 hPa | 0 mm | - | 196 W/m² | - |
| 1777639616 | 10° C | 75% | 1016 hPa | 0 mm | - | 446 W/m² | - |
| 1777639313 | 10° C | 75% | 1015.8 hPa | 0 mm | - | 175 W/m² | - |
| 1777639009 | 9.44° C | 77% | 1015.9 hPa | 0 mm | - | 190 W/m² | - |
| 1777638705 | 8.89° C | 82% | 1016 hPa | 0 mm | - | 264 W/m² | - |
| 1777638402 | 8.89° C | 85% | 1015.9 hPa | 0 mm | - | 126 W/m² | - |
| 1777638098 | 8.33° C | 86% | 1015.9 hPa | 0 mm | - | 156 W/m² | - |
| 1777637795 | 7.78° C | 86% | 1015.8 hPa | 0 mm | - | 114 W/m² | - |
| 1777637491 | 8.33° C | 87% | 1016.1 hPa | 0 mm | - | 87 W/m² | - |
| 1777637189 | 7.78° C | 88% | 1015.7 hPa | 0 mm | - | 138 W/m² | - |
| 1777636886 | 6.67° C | 89% | 1015.7 hPa | 0 mm | - | 153 W/m² | - |
| 1777636581 | 6.67° C | 91% | 1015.6 hPa | 0 mm | - | 72 W/m² | - |
| 1777636278 | 6.11° C | 92% | 1015.8 hPa | 0 mm | - | 65 W/m² | - |
* Rain latest hour (hover to see other rain measurements)
** Current wind speed in m/s (hover to see current wind gust speed)